MEA261 OLBA-LCLK

Flight info

Callsign MEA261
Flight time 0h 28m
Altitude 16000
Route BOD DCT KUKLA M31 REXAL DCT ROKIK DCT LK505
Aircraft A320/M-SDE3FGHIRWY/LB1

Departure

Time 2026-05-04 18:28
Airport Beirut Rafic Hariri International Airport (OLBA)

Arrival

Time 2026-05-04 18:56
Airport Larnaca International Airport (LCLK)
Time Latitude Longitude Altitude Speed Heading
2026-05-04 17:56 33.82370 35.49441 15 ft 0 kts 310°
2026-05-04 18:18 33.82361 35.49453 15 ft 4 kts 310°
2026-05-04 18:18 33.82344 35.49478 15 ft 4 kts 307°
2026-05-04 18:18 33.82330 35.49505 16 ft 4 kts 287°
2026-05-04 18:19 33.82346 35.49542 18 ft 1 kts 215°
2026-05-04 18:19 33.82346 35.49543 18 ft 0 kts 215°
2026-05-04 18:22 33.82341 35.49539 18 ft 2 kts 215°
2026-05-04 18:22 33.82319 35.49520 17 ft 5 kts 215°
2026-05-04 18:22 33.82288 35.49499 15 ft 5 kts 198°
2026-05-04 18:22 33.82259 35.49504 16 ft 4 kts 154°
2026-05-04 18:23 33.82239 35.49529 15 ft 4 kts 127°
2026-05-04 18:23 33.82225 35.49552 16 ft 3 kts 127°
2026-05-04 18:23 33.82214 35.49570 15 ft 2 kts 127°
2026-05-04 18:23 33.82206 35.49588 15 ft 3 kts 109°
2026-05-04 18:24 33.82211 35.49623 15 ft 5 kts 63°
2026-05-04 18:24 33.82244 35.49657 15 ft 8 kts 35°
2026-05-04 18:24 33.82308 35.49711 17 ft 14 kts 35°
2026-05-04 18:24 33.82385 35.49777 15 ft 13 kts 36°
2026-05-04 18:25 33.82459 35.49839 17 ft 13 kts 35°
2026-05-04 18:25 33.82529 35.49899 15 ft 12 kts 35°
2026-05-04 18:25 33.82602 35.49961 15 ft 14 kts 35°
2026-05-04 18:25 33.82683 35.50029 15 ft 15 kts 35°
2026-05-04 18:26 33.82763 35.50107 15 ft 14 kts 62°
2026-05-04 18:26 33.82760 35.50153 15 ft 3 kts 129°
2026-05-04 18:26 33.82745 35.50180 15 ft 5 kts 124°
2026-05-04 18:26 33.82709 35.50240 16 ft 11 kts 133°
2026-05-04 18:27 33.82642 35.50264 18 ft 11 kts 194°
2026-05-04 18:27 33.82574 35.50217 17 ft 19 kts 212°
2026-05-04 18:27 33.82258 35.49972 16 ft 86 kts 213°
2026-05-04 18:27 33.81598 35.49463 16 ft 137 kts 213°
2026-05-04 18:28 33.80731 35.48886 453 ft 135 kts 212°
2026-05-04 18:28 33.79937 35.48306 853 ft 136 kts 216°
2026-05-04 18:28 33.79144 35.47709 1221 ft 139 kts 216°
2026-05-04 18:28 33.78310 35.47077 1630 ft 145 kts 216°
2026-05-04 18:29 33.77423 35.46406 1952 ft 159 kts 215°
2026-05-04 18:29 33.76532 35.45510 2133 ft 181 kts 241°
2026-05-04 18:29 33.76296 35.43986 2550 ft 192 kts 282°
2026-05-04 18:29 33.76985 35.42554 3005 ft 209 kts 308°
2026-05-04 18:30 33.79021 35.39676 4100 ft 243 kts 309°
2026-05-04 18:30 33.80147 35.38103 4746 ft 257 kts 309°
2026-05-04 18:30 33.81339 35.36429 5625 ft 262 kts 309°
2026-05-04 18:31 33.82513 35.34770 6505 ft 266 kts 309°
2026-05-04 18:31 33.83719 35.33060 7386 ft 269 kts 309°
2026-05-04 18:31 33.84939 35.31328 8240 ft 273 kts 309°
2026-05-04 18:31 33.86168 35.29577 9232 ft 275 kts 305°
2026-05-04 18:32 33.87404 35.27810 10147 ft 276 kts 305°
2026-05-04 18:32 33.88671 35.25996 10631 ft 292 kts 306°
2026-05-04 18:32 33.90014 35.24067 11031 ft 309 kts 306°
2026-05-04 18:32 33.91430 35.22038 11380 ft 325 kts 306°
2026-05-04 18:33 33.92913 35.19917 11891 ft 334 kts 306°
2026-05-04 18:33 33.94425 35.17762 12604 ft 338 kts 306°
2026-05-04 18:33 33.95944 35.15599 13354 ft 340 kts 306°
2026-05-04 18:33 33.97477 35.13412 14063 ft 343 kts 306°
2026-05-04 18:34 33.99022 35.11205 14702 ft 346 kts 306°
2026-05-04 18:34 34.00578 35.08977 15303 ft 349 kts 306°
2026-05-04 18:34 34.02149 35.06721 15824 ft 352 kts 307°
2026-05-04 18:34 34.03724 35.04455 15959 ft 356 kts 307°
2026-05-04 18:35 34.05333 35.02134 15987 ft 375 kts 307°
2026-05-04 18:35 34.07041 34.99667 15982 ft 388 kts 307°
2026-05-04 18:35 34.08779 34.97167 15980 ft 389 kts 307°
2026-05-04 18:35 34.10520 34.94669 15975 ft 389 kts 307°
2026-05-04 18:36 34.12259 34.92172 15973 ft 389 kts 307°
2026-05-04 18:36 34.13998 34.89673 15973 ft 389 kts 307°
2026-05-04 18:36 34.15735 34.87170 15972 ft 389 kts 307°
2026-05-04 18:36 34.17470 34.84664 15970 ft 389 kts 307°
2026-05-04 18:37 34.19204 34.82160 15971 ft 389 kts 307°
2026-05-04 18:37 34.20942 34.79649 15964 ft 389 kts 307°
2026-05-04 18:37 34.22677 34.77141 15970 ft 388 kts 307°
2026-05-04 18:37 34.24400 34.74615 15965 ft 387 kts 304°
2026-05-04 18:38 34.25929 34.71931 15969 ft 386 kts 301°
2026-05-04 18:38 34.27416 34.69273 15970 ft 386 kts 301°
2026-05-04 18:38 34.28942 34.66554 15971 ft 386 kts 301°
2026-05-04 18:38 34.30439 34.63895 15969 ft 386 kts 301°
2026-05-04 18:39 34.31950 34.61210 15970 ft 386 kts 301°
2026-05-04 18:39 34.33454 34.58534 15970 ft 385 kts 301°
2026-05-04 18:39 34.34961 34.55843 15971 ft 385 kts 301°
2026-05-04 18:39 34.36459 34.53166 15970 ft 385 kts 301°
2026-05-04 18:40 34.37964 34.50478 15965 ft 385 kts 301°
2026-05-04 18:40 34.39466 34.47792 15963 ft 384 kts 301°
2026-05-04 18:40 34.40963 34.45111 15961 ft 384 kts 301°
2026-05-04 18:40 34.42461 34.42425 15956 ft 384 kts 301°
2026-05-04 18:41 34.43953 34.39751 15958 ft 384 kts 301°
2026-05-04 18:41 34.45450 34.37073 15955 ft 384 kts 301°
2026-05-04 18:41 34.46956 34.34401 15959 ft 384 kts 302°
2026-05-04 18:41 34.48468 34.31737 15955 ft 384 kts 302°
2026-05-04 18:42 34.49978 34.29076 15955 ft 383 kts 302°
2026-05-04 18:42 34.51475 34.26438 15937 ft 371 kts 302°
2026-05-04 18:42 34.52902 34.23934 15939 ft 351 kts 302°
2026-05-04 18:42 34.54266 34.21537 15940 ft 346 kts 301°
2026-05-04 18:43 34.55632 34.19119 15918 ft 347 kts 301°
2026-05-04 18:43 34.56989 34.16714 15536 ft 345 kts 301°
2026-05-04 18:43 34.58323 34.14349 14987 ft 342 kts 301°
2026-05-04 18:43 34.59662 34.11973 14440 ft 340 kts 301°
2026-05-04 18:44 34.60992 34.09612 13900 ft 338 kts 301°
2026-05-04 18:44 34.61437 34.08820 13721 ft 337 kts 301°
2026-05-04 18:44 34.63621 34.04938 12824 ft 331 kts 301°
2026-05-04 18:44 34.64892 34.02683 12685 ft 316 kts 301°
2026-05-04 18:45 34.66114 34.00527 12550 ft 303 kts 301°
2026-05-04 18:45 34.67287 33.98459 12431 ft 292 kts 301°
2026-05-04 18:45 34.68419 33.96463 12295 ft 281 kts 301°
2026-05-04 18:45 34.69514 33.94525 12050 ft 276 kts 301°
2026-05-04 18:46 34.70594 33.92606 11699 ft 274 kts 301°
2026-05-04 18:46 34.71671 33.90692 11310 ft 275 kts 302°
2026-05-04 18:46 34.72950 33.88938 10797 ft 282 kts 317°
2026-05-04 18:46 34.74529 33.87478 10322 ft 287 kts 320°
2026-05-04 18:47 34.76140 33.86013 9838 ft 291 kts 320°
2026-05-04 18:47 34.77769 33.84527 9304 ft 294 kts 320°
2026-05-04 18:47 34.79411 33.83027 8779 ft 296 kts 321°
2026-05-04 18:47 34.81058 33.81522 8296 ft 293 kts 321°
2026-05-04 18:48 34.82625 33.80098 8133 ft 269 kts 321°
2026-05-04 18:48 34.83636 33.79246 8059 ft 255 kts 323°
2026-05-04 18:48 34.85119 33.78086 7718 ft 245 kts 325°
2026-05-04 18:48 34.86995 33.76669 7138 ft 239 kts 326°
2026-05-04 18:49 34.87923 33.75973 7096 ft 223 kts 326°
2026-05-04 18:49 34.89223 33.75078 6807 ft 211 kts 337°
2026-05-04 18:49 34.90689 33.74994 6315 ft 217 kts 12°
2026-05-04 18:49 34.91965 33.75977 5816 ft 222 kts 47°
2026-05-04 18:50 34.92874 33.77507 5316 ft 223 kts 54°
2026-05-04 18:50 34.93714 33.79094 4872 ft 222 kts 53°
2026-05-04 18:50 34.94821 33.80282 4476 ft 203 kts 20°
2026-05-04 18:50 34.96124 33.80537 3892 ft 185 kts 349°
2026-05-04 18:51 34.97284 33.79985 3112 ft 178 kts 320°
2026-05-04 18:51 34.98043 33.78877 2471 ft 165 kts 296°
2026-05-04 18:51 34.98313 33.77542 1808 ft 163 kts 272°
2026-05-04 18:51 34.98079 33.76237 1525 ft 150 kts 248°
2026-05-04 18:52 34.97534 33.75266 1498 ft 131 kts 236°
2026-05-04 18:52 34.96973 33.74390 1507 ft 131 kts 235°
2026-05-04 18:52 34.96380 33.73544 1512 ft 132 kts 232°
2026-05-04 18:52 34.95755 33.72718 1511 ft 133 kts 231°
2026-05-04 18:53 34.95116 33.71904 1499 ft 132 kts 230°
2026-05-04 18:53 34.94476 33.71104 1502 ft 131 kts 230°
2026-05-04 18:53 34.93824 33.70297 1422 ft 133 kts 230°
2026-05-04 18:53 34.93181 33.69505 1292 ft 134 kts 230°
2026-05-04 18:54 34.92527 33.68702 1145 ft 132 kts 229°
2026-05-04 18:54 34.91881 33.67910 993 ft 132 kts 228°
2026-05-04 18:54 34.91226 33.67108 825 ft 135 kts 228°
2026-05-04 18:54 34.90565 33.66298 658 ft 133 kts 227°
2026-05-04 18:55 34.89927 33.65494 506 ft 131 kts 227°
2026-05-04 18:55 34.88876 33.64203 202 ft 131 kts 225°
2026-05-04 18:55 34.88213 33.63407 48 ft 130 kts 225°
2026-05-04 18:56 34.87606 33.62673 23 ft 104 kts 226°
2026-05-04 18:56 34.87223 33.62204 19 ft 53 kts 225°
2026-05-04 18:56 34.87045 33.61980 21 ft 33 kts 233°
2026-05-04 18:56 34.86960 33.61744 21 ft 23 kts 256°
2026-05-04 18:57 34.86917 33.61548 20 ft 25 kts 254°
2026-05-04 18:57 34.86882 33.61388 19 ft 11 kts 288°
2026-05-04 18:57 34.86939 33.61311 19 ft 13 kts 314°
2026-05-04 18:57 34.87013 33.61221 19 ft 16 kts 315°
2026-05-04 18:58 34.87088 33.61118 19 ft 12 kts 277°
2026-05-04 18:58 34.87029 33.61052 20 ft 13 kts 217°
2026-05-04 18:58 34.87021 33.61044 19 ft 0 kts 221°